Precipitable_Water
0.72 0.72 0.70 0.66 0.60 0.58 0.57 0.58 0.59 0.59 0.57 0.57 0.57 0.58 0.58 0.65 0.66 0.68 0.86 0.90 0.88 0.96 1.10 1.25 1.23 1.36 1.28 1.40 1.42 1.42 1.46 1.38 1.23 1.34 1.43 1.44 1.38 1.28 1.30 1.32 1.27 1.30 1.31
0.77 0.72 0.71 0.70 0.66 0.62 0.62 0.62 0.61 0.58 0.59 0.57 0.57 0.54 0.50 0.47 0.47 0.53 0.60 0.71 0.83 0.88 0.94 1.04 1.12 1.31 1.32 1.39 1.39 1.37 1.43 1.42 1.33 1.22 1.28 1.30 1.25 1.26 1.28 1.23 1.28 1.33 1.31
0.89 0.86 0.83 0.79 0.75 0.73 0.73 0.73 0.72 0.70 0.65 0.62 0.59 0.56 0.55 0.56 0.58 0.58 0.53 0.54 0.63 0.74 0.87 1.03 1.11 1.22 1.21 1.29 1.40 1.37 1.38 1.39 1.36 1.27 1.15 1.26 1.22 1.19 1.12 1.20 1.26 1.33 1.38
0.94 0.93 0.93 0.94 0.96 0.94 0.92 0.87 0.82 0.77 0.72 0.71 0.72 0.72 0.71 0.72 0.73 0.67 0.66 0.62 0.53 0.58 0.71 0.90 1.10 1.16 1.16 1.26 1.31 1.32 1.37 1.32 1.28 1.17 1.11 1.11 1.12 1.10 1.13 1.17 1.19 1.29 1.26
0.89 0.91 0.92 0.98 0.98 0.97 0.96 0.94 0.94 0.89 0.87 0.84 0.73 0.74 0.73 0.74 0.77 0.75 0.70 0.67 0.68 0.63 0.66 0.87 1.00 1.13 1.24 1.28 1.29 1.29 1.27 1.19 1.14 1.09 1.01 1.02 0.94 0.92 1.08 1.15 1.11 1.12 1.14
0.85 0.87 0.91 0.93 0.95 0.92 0.92 0.91 0.91 0.88 0.88 0.84 0.78 0.81 0.82 0.82 0.76 0.70 0.69 0.68 0.73 0.75 0.71 0.89 1.04 1.15 1.22 1.22 1.22 1.18 1.21 1.18 1.03 1.03 1.00 0.98 1.00 1.12 1.17 1.10 0.98 0.95 0.89
0.79 0.84 0.86 0.88 0.88 0.88 0.89 0.88 0.88 0.87 0.86 0.81 0.79 0.77 0.77 0.81 0.81 0.79 0.73 0.76 0.80 0.85 0.88 0.91 0.95 1.05 1.13 1.15 1.16 1.06 1.19 1.11 1.07 1.02 0.99 0.95 1.03 1.04 1.07 1.01 0.91 0.87 0.82
0.69 0.73 0.74 0.78 0.82 0.87 0.88 0.86 0.87 0.90 0.88 0.87 0.86 0.85 0.84 0.83 0.84 0.83 0.79 0.81 0.84 0.86 0.87 0.94 0.97 1.03 1.06 1.06 1.04 1.04 0.99 1.08 1.06 1.09 1.06 1.02 1.03 1.06 0.99 0.92 0.85 0.79 0.75
0.49 0.59 0.66 0.68 0.67 0.70 0.74 0.81 0.85 0.85 0.84 0.85 0.86 0.87 0.84 0.87 0.90 0.88 0.85 0.84 0.86 0.88 0.90 0.92 0.96 0.94 0.94 0.92 0.97 0.93 1.01 1.02 1.04 1.04 1.03 1.02 0.97 0.92 0.87 0.79 0.71 0.64 0.55
0.42 0.48 0.53 0.56 0.57 0.56 0.59 0.62 0.72 0.78 0.79 0.82 0.82 0.82 0.84 0.87 0.92 0.91 0.95 0.94 0.90 0.90 0.96 0.94 0.99 0.99 0.98 1.05 1.01 1.02 0.92 0.90 0.88 0.86 0.85 0.81 0.76 0.70 0.66 0.60 0.54 0.46 0.46
0.37 0.42 0.45 0.47 0.48 0.52 0.55 0.58 0.59 0.59 0.60 0.66 0.74 0.80 0.83 0.86 0.88 0.91 0.93 0.94 0.89 0.87 0.89 0.87 0.91 0.92 0.90 0.87 0.84 0.76 0.71 0.66 0.56 0.48 0.44 0.42 0.43 0.44 0.45 0.47 0.47 0.45 0.40
0.33 0.34 0.37 0.40 0.41 0.43 0.45 0.47 0.49 0.49 0.47 0.45 0.45 0.47 0.54 0.63 0.69 0.73 0.74 0.72 0.74 0.71 0.69 0.68 0.68 0.62 0.57 0.50 0.42 0.36 0.34 0.34 0.33 0.32 0.31 0.31 0.32 0.32 0.35 0.37 0.39 0.40 0.41
0.31 0.30 0.32 0.34 0.36 0.38 0.37 0.38 0.38 0.39 0.37 0.36 0.34 0.33 0.32 0.34 0.35 0.37 0.36 0.36 0.36 0.34 0.34 0.34 0.33 0.33 0.32 0.32 0.32 0.32 0.31 0.30 0.28 0.26 0.26 0.27 0.29 0.31 0.32 0.32 0.33 0.35 0.36
0.30 0.30 0.30 0.31 0.32 0.34 0.35 0.36 0.35 0.34 0.33 0.33 0.31 0.29 0.30 0.32 0.33 0.35 0.35 0.37 0.39 0.37 0.36 0.34 0.33 0.32 0.32 0.31 0.30 0.31 0.31 0.30 0.29 0.27 0.27 0.28 0.29 0.28 0.28 0.30 0.29 0.29 0.28
0.30 0.29 0.29 0.29 0.30 0.31 0.33 0.32 0.34 0.36 0.35 0.34 0.34 0.33 0.31 0.30 0.33 0.35 0.35 0.36 0.38 0.38 0.36 0.35 0.34 0.34 0.33 0.33 0.33 0.33 0.32 0.31 0.29 0.30 0.29 0.28 0.28 0.29 0.28 0.30 0.29 0.28 0.26
0.28 0.28 0.28 0.27 0.28 0.29 0.29 0.30 0.34 0.35 0.37 0.38 0.37 0.35 0.36 0.36 0.36 0.36 0.36 0.37 0.37 0.36 0.35 0.33 0.33 0.33 0.32 0.32 0.32 0.31 0.32 0.30 0.29 0.29 0.27 0.26 0.25 0.24 0.23 0.24 0.26 0.25 0.25
0.29 0.29 0.28 0.28 0.26 0.26 0.28 0.28 0.26 0.30 0.34 0.35 0.36 0.37 0.35 0.35 0.35 0.36 0.38 0.40 0.40 0.38 0.36 0.35 0.33 0.33 0.33 0.32 0.31 0.29 0.28 0.28 0.28 0.26 0.25 0.25 0.24 0.23 0.22 0.22 0.23 0.23 0.23
0.34 0.33 0.32 0.31 0.31 0.30 0.30 0.30 0.31 0.30 0.28 0.30 0.36 0.36 0.36 0.36 0.36 0.37 0.40 0.41 0.36 0.35 0.35 0.36 0.36 0.35 0.32 0.30 0.29 0.28 0.27 0.26 0.27 0.25 0.24 0.23 0.22 0.22 0.21 0.21 0.22 0.22 0.22
0.40 0.37 0.35 0.35 0.34 0.34 0.33 0.33 0.33 0.33 0.33 0.33 0.34 0.36 0.37 0.38 0.37 0.40 0.41 0.37 0.35 0.37 0.39 0.38 0.37 0.34 0.32 0.30 0.29 0.28 0.27 0.26 0.25 0.23 0.23 0.23 0.23 0.22 0.22 0.22 0.22 0.22 0.22
0.46 0.46 0.43 0.38 0.34 0.31 0.31 0.31 0.31 0.31 0.31 0.31 0.31 0.32 0.34 0.35 0.34 0.38 0.39 0.38 0.37 0.37 0.37 0.37 0.37 0.35 0.32 0.29 0.28 0.27 0.26 0.25 0.24 0.24 0.23 0.23 0.24 0.23 0.23 0.22 0.23 0.22 0.21
0.48 0.49 0.48 0.45 0.40 0.37 0.34 0.33 0.33 0.32 0.32 0.32 0.32 0.34 0.35 0.34 0.33 0.37 0.38 0.36 0.36 0.36 0.36 0.37 0.37 0.34 0.32 0.30 0.28 0.27 0.26 0.25 0.25 0.25 0.24 0.24 0.24 0.23 0.23 0.23 0.23 0.23 0.23
0.54 0.53 0.52 0.49 0.47 0.43 0.39 0.36 0.33 0.32 0.30 0.30 0.30 0.31 0.32 0.32 0.31 0.35 0.36 0.36 0.37 0.38 0.39 0.38 0.36 0.32 0.32 0.30 0.29 0.27 0.25 0.25 0.25 0.25 0.24 0.24 0.24 0.23 0.24 0.23 0.23 0.23 0.23
0.49 0.48 0.48 0.47 0.46 0.45 0.42 0.38 0.36 0.34 0.32 0.32 0.32 0.31 0.31 0.30 0.31 0.33 0.34 0.36 0.37 0.39 0.37 0.37 0.34 0.32 0.31 0.30 0.28 0.27 0.25 0.24 0.24 0.25 0.24 0.24 0.24 0.24 0.24 0.23 0.23 0.23 0.23
0.42 0.43 0.44 0.46 0.47 0.46 0.45 0.42 0.41 0.39 0.37 0.36 0.35 0.34 0.33 0.32 0.31 0.34 0.36 0.38 0.39 0.37 0.36 0.34 0.31 0.30 0.30 0.28 0.27 0.27 0.25 0.25 0.25 0.25 0.25 0.25 0.24 0.25 0.25 0.24 0.24 0.24 0.24
0.40 0.40 0.41 0.43 0.45 0.46 0.46 0.45 0.43 0.42 0.41 0.40 0.38 0.37 0.37 0.34 0.33 0.35 0.40 0.40 0.39 0.37 0.34 0.31 0.32 0.29 0.28 0.27 0.26 0.26 0.25 0.25 0.26 0.27 0.27 0.26 0.26 0.25 0.25 0.24 0.24 0.25 0.25
0.40 0.41 0.42 0.43 0.43 0.45 0.45 0.44 0.43 0.43 0.42 0.42 0.41 0.40 0.38 0.35 0.36 0.41 0.41 0.41 0.37 0.35 0.34 0.32 0.30 0.29 0.28 0.26 0.26 0.26 0.26 0.26 0.26 0.26 0.28 0.26 0.25 0.25 0.25 0.25 0.25 0.25 0.25
Wind_Speed
13 14 15 15 16 19 22 26 30 34 38 39 41 43 44 46 46 46 48 50 53 55 55 52 52 49 51 49 50 47 45 42 40 37 39 38 38 37 38 38 39 40 42
5 7 10 11 12 15 18 21 25 28 32 35 38 40 42 43 44 46 46 47 47 50 53 54 53 50 50 49 44 45 44 42 42 43 42 41 41 42 44 44 45 46 46
1 2 3 7 9 11 14 18 23 26 28 31 34 37 40 42 44 45 46 47 47 46 47 49 50 51 49 47 45 44 44 43 43 42 42 42 44 44 46 47 46 47 47
1 0 1 4 7 9 11 12 14 17 21 26 30 33 36 39 41 43 44 46 46 46 45 45 45 45 46 44 42 43 42 42 42 43 44 44 45 45 43 42 43 41 40
9 4 3 5 5 4 6 7 6 8 12 16 19 22 26 31 34 36 38 40 41 43 41 41 41 39 39 40 38 40 39 40 41 41 41 42 41 40 37 34 33 32 31
19 17 14 12 8 8 8 7 6 5 5 7 8 11 15 18 23 29 31 32 33 35 36 36 34 34 33 33 35 35 36 38 38 39 40 38 34 31 31 31 30 30 31
23 21 19 19 19 15 14 13 9 8 7 6 6 7 8 11 14 16 20 22 23 25 27 30 29 28 28 29 29 29 30 31 31 33 33 29 29 28 29 30 30 30 31
22 20 20 19 18 18 16 15 13 12 11 9 8 7 7 8 6 5 8 12 15 17 20 22 22 23 24 25 25 24 25 23 24 23 23 24 24 26 27 29 30 32 34
20 19 18 18 19 19 18 18 17 16 14 13 12 11 9 8 8 6 4 5 7 9 12 15 17 17 18 20 19 17 17 18 19 19 20 22 25 27 29 31 33 35 36
16 16 16 16 16 17 16 16 16 16 17 17 16 14 14 12 9 7 8 5 5 7 7 8 8 9 11 12 13 15 16 18 20 22 24 26 28 30 32 34 36 37 39
13 13 14 14 14 14 14 14 14 14 14 14 14 14 13 11 10 9 9 7 6 5 5 5 5 6 8 10 13 16 19 22 23 25 27 29 31 32 34 36 38 39 41
12 12 12 12 12 12 12 12 11 11 11 11 11 10 10 9 8 6 4 3 1 2 4 7 9 11 13 15 17 19 21 24 25 27 29 31 33 35 37 38 39 41 43
12 12 12 12 12 12 12 12 11 11 10 10 9 9 8 8 7 6 5 5 6 7 9 10 13 15 17 19 20 22 24 26 28 29 31 33 34 36 38 39 41 42 44
14 14 14 14 14 14 14 13 13 12 12 11 11 10 10 9 9 9 9 10 10 11 13 15 16 18 20 21 23 25 26 28 29 30 32 34 35 37 38 39 40 42 44
17 17 17 17 17 16 16 16 16 16 15 14 14 13 13 13 13 13 13 14 14 15 16 18 19 21 22 24 25 27 28 29 31 32 33 34 36 37 38 40 41 42 43
21 21 21 21 20 20 20 19 19 19 18 18 17 17 17 17 17 17 18 18 19 20 21 23 24 25 26 27 28 29 30 30 31 32 33 35 36 37 39 40 41 41 42
23 24 24 23 23 23 23 23 23 22 22 21 21 21 21 21 21 21 22 22 23 24 24 26 27 28 29 30 30 30 30 30 31 32 34 35 36 37 38 39 40 40 41
26 27 26 26 26 26 26 26 26 26 25 25 25 25 24 25 25 25 25 25 26 27 28 30 31 31 30 30 30 29 29 31 32 33 34 35 35 36 37 38 39 40 40
28 29 29 29 30 30 30 30 30 30 30 29 29 29 29 29 29 29 28 28 29 30 31 31 30 30 29 29 29 29 30 31 32 32 33 33 34 35 36 37 38 39 40
31 32 32 32 32 33 33 33 33 34 34 34 33 33 33 32 32 32 32 32 32 32 32 32 31 30 30 29 29 30 30 31 31 31 32 32 33 33 34 35 36 37 38
34 35 36 36 36 37 37 37 37 37 37 37 37 37 37 36 36 36 35 35 35 34 34 34 33 32 31 31 30 31 31 30 30 31 31 31 31 33 34 35 36 37 38
38 38 38 39 38 39 39 39 39 39 39 39 39 39 39 38 38 37 37 37 36 36 35 34 33 32 31 31 31 30 29 29 29 29 29 30 30 32 33 34 36 37 36
37 38 38 39 39 39 39 39 39 40 40 40 40 40 40 39 39 38 38 38 37 37 36 34 33 31 31 30 29 28 28 27 28 27 28 28 30 31 32 33 34 34 33
36 37 38 39 38 39 39 40 40 41 41 41 41 40 39 39 38 37 37 37 36 35 34 33 32 31 29 29 27 27 26 26 26 26 26 27 29 30 31 32 32 31 29
37 37 38 38 38 38 39 39 40 41 40 39 38 38 37 36 35 34 34 34 33 33 32 31 30 28 27 26 25 25 25 24 24 25 24 26 27 28 29 29 29 28 26
37 38 38 37 36 37 37 37 37 37 38 36 35 34 33 32 32 32 31 31 31 30 30 27 26 25 24 23 23 22 22 22 22 22 24 24 25 26 26 26 25 24 22
Wind_Direction
258 247 240 242 243 246 249 249 248 248 246 247 247 248 249 249 249 250 250 249 248 247 247 247 248 250 250 253 252 253 255 254 255 258 265 267 266 269 271 272 274 272 275
263 244 234 241 248 255 259 256 253 251 249 249 249 250 250 250 250 250 250 250 249 248 246 247 247 248 250 249 252 253 252 253 257 262 264 266 267 270 273 274 275 276 274
263 242 228 250 260 272 274 268 259 255 254 252 251 252 252 253 252 251 250 249 249 248 247 245 245 245 249 251 248 250 251 254 257 262 266 267 271 274 276 276 277 278 277
12 266 305 305 294 292 294 288 271 260 258 257 256 256 255 255 253 253 251 249 249 248 247 245 245 246 246 248 250 251 252 256 258 263 267 271 274 276 277 277 278 276 279
53 57 11 352 350 350 351 341 312 281 274 270 266 262 260 257 255 254 252 249 248 246 244 243 244 246 246 245 248 252 254 257 260 265 268 272 274 275 274 276 275 278 278
61 65 58 46 35 26 15 12 10 2 329 305 287 277 273 267 263 255 251 249 246 242 239 240 241 242 242 245 249 253 256 259 262 267 271 271 269 269 272 274 274 278 279
58 60 57 54 53 51 44 37 35 25 16 2 343 318 309 288 274 263 245 240 238 236 234 233 236 239 243 245 250 255 256 261 264 265 266 265 267 273 272 273 277 278 280
53 54 53 51 49 46 43 41 40 38 31 21 11 0 351 346 326 265 223 224 226 229 227 225 229 236 242 245 249 254 258 260 262 263 262 264 268 272 275 277 278 280 282
46 47 46 44 44 44 45 46 46 46 39 36 37 35 37 46 53 71 137 177 196 203 209 218 228 237 243 247 241 245 250 259 261 265 267 270 274 278 280 280 282 284 284
35 37 38 39 39 40 41 43 44 45 47 47 49 51 55 57 58 77 86 108 148 177 187 199 204 217 237 240 245 254 255 265 269 272 274 276 279 282 284 284 285 285 285
22 24 25 26 28 30 32 33 35 37 39 41 44 46 49 52 56 65 80 94 105 146 180 201 223 235 249 259 264 267 269 272 275 276 278 281 282 284 285 287 287 287 287
5 7 8 9 10 11 12 13 16 18 20 22 24 27 30 33 38 42 44 37 339 262 257 261 265 269 273 275 276 277 278 279 280 281 283 285 286 288 289 289 290 290 289
346 347 348 348 349 349 349 348 348 349 350 351 353 355 356 354 350 347 334 317 297 288 283 279 279 280 281 283 284 284 285 285 286 286 287 288 289 290 290 291 291 292 292
326 328 328 329 329 330 329 329 328 327 326 326 325 325 326 325 322 317 310 303 298 293 291 290 288 288 287 287 287 288 287 288 288 289 290 291 291 292 293 293 293 294 293
310 312 313 314 315 315 315 315 314 312 310 309 307 305 305 304 303 301 299 298 295 293 293 293 293 293 292 292 292 292 291 291 292 292 292 293 294 295 295 296 296 297 297
301 302 303 304 304 304 305 305 305 304 304 302 299 298 298 297 296 296 297 297 296 294 295 295 295 294 294 294 293 293 293 293 293 293 294 295 296 297 297 299 299 300 300
297 298 298 298 298 297 297 296 297 297 296 295 294 293 292 291 292 293 293 294 295 295 295 295 295 295 295 294 294 293 293 294 295 296 297 298 299 300 301 301 302 302 303
294 293 294 294 294 294 293 293 292 292 291 291 290 289 289 289 290 291 291 292 294 295 296 296 295 294 294 294 294 294 295 297 298 299 300 300 301 302 303 304 304 304 304
291 292 292 292 292 292 291 291 290 289 288 288 287 286 286 286 287 288 290 291 292 294 296 296 296 294 294 294 294 294 296 298 299 300 301 302 303 304 305 306 306 307 306
290 290 291 292 292 291 290 289 288 287 286 285 284 283 283 283 284 285 287 289 291 293 294 295 294 293 293 293 294 295 296 299 299 301 303 304 305 306 307 308 309 309 308
290 291 290 291 290 290 289 288 287 285 284 283 282 282 281 281 281 282 284 286 289 290 292 293 292 291 290 291 293 295 297 298 299 301 304 304 306 308 309 310 310 309 309
289 290 290 289 289 289 289 288 287 286 284 283 282 281 280 279 280 281 282 284 287 288 290 291 291 289 288 289 291 293 294 296 299 302 304 305 307 309 310 311 312 312 311
292 291 291 291 290 290 289 289 288 287 285 284 282 281 280 279 279 280 281 283 285 287 288 289 288 286 285 287 289 290 292 295 298 301 303 306 309 311 313 314 316 316 315
295 295 294 293 292 290 290 290 289 288 286 284 282 280 279 278 278 279 280 282 285 286 286 286 286 285 283 285 287 289 291 294 297 300 303 307 311 313 316 317 318 318 318
297 297 296 295 293 291 291 292 291 289 287 284 281 279 278 277 277 278 281 281 284 284 285 285 284 283 282 283 285 288 291 294 297 300 303 308 312 316 319 321 321 321 320
299 299 298 296 294 293 293 293 294 293 289 284 280 278 277 277 277 279 280 281 283 284 284 283 282 280 280 282 284 287 291 295 298 301 306 309 314 318 322 324 324 325 324